This is the latest recevied weather packets stored in our database for station/object K7TUS-6. If no packets are shown the sender has not sent any weather packets the latest 10 day(s).
| Time | Temp. | Humidity | Pressure | Rain* | Wind** | Luminosity | Snow |
|---|---|---|---|---|---|---|---|
| 1777580405 | 17.78° C | 1% | 980.2 hPa | - | - | - | - |
| 1777580104 | 20° C | 1% | 980.7 hPa | - | - | - | - |
| 1777579810 | 19.44° C | 1% | 980.5 hPa | - | - | - | - |
| 1777579507 | 18.33° C | 1% | 980.4 hPa | - | - | - | - |
| 1777579206 | 18.33° C | 1% | 980.5 hPa | - | - | - | - |
| 1777578906 | 17.78° C | 1% | 980.1 hPa | - | - | - | - |
| 1777578605 | 18.89° C | 1% | 980.4 hPa | - | - | - | - |
| 1777578305 | 17.78° C | 1% | 980.3 hPa | - | - | - | - |
| 1777578004 | 17.78° C | 1% | 980.6 hPa | - | - | - | - |
| 1777577704 | 18.33° C | 1% | 980.7 hPa | - | - | - | - |
| 1777577103 | 17.22° C | 1% | 979.9 hPa | - | - | - | - |
| 1777576802 | 17.78° C | 1% | 980.5 hPa | - | - | - | - |
| 1777576508 | 16.11° C | 1% | 980.2 hPa | - | - | - | - |
| 1777575907 | 16.11° C | 1% | 981.1 hPa | - | - | - | - |
| 1777575606 | 16.11° C | 1% | 981.1 hPa | - | - | - | - |
| 1777575006 | 16.67° C | 1% | 979.6 hPa | - | - | - | - |
| 1777574705 | 16.67° C | 1% | 981.1 hPa | - | - | - | - |
| 1777574404 | 16.67° C | 1% | 981.1 hPa | - | - | - | - |
| 1777574104 | 16.11° C | 1% | 981.4 hPa | - | - | - | - |
| 1777573803 | 16.67° C | 1% | 980.8 hPa | - | - | - | - |
| 1777573203 | 15.56° C | 1% | 980.9 hPa | - | - | - | - |
| 1777572909 | 16.67° C | 1% | 980.8 hPa | - | - | - | - |
| 1777572608 | 16.67° C | 1% | 981 hPa | - | - | - | - |
| 1777572007 | 16.11° C | 1% | 981.3 hPa | - | - | - | - |
| 1777571706 | 15° C | 1% | 980.3 hPa | - | - | - | - |
* Rain since midnight (hover to see other rain measurements)
** Current wind speed in m/s (hover to see current wind gust speed)